星链-34221 (STARLINK-34221)

导读 | 豆包AI

STARLINK-34221是美国SpaceX星链星座旗下卫星,于2025年6月18日发射。星链是美国搭建的低轨卫星互联网星座,该卫星延续了星链星座为全球提供高速互联网接入服务的定位,服务范围覆盖偏远地区、海洋空域等,助力卫星互联网全球覆盖,进一步扩充了星链星座在轨规模。

基本信息
目录编号:
64453
目录名称:
STARLINK-34221
国际标识:
2025-130R
轨道中心:
EARTH
卫星名称:
星链-34221
卫星全名:
星链-34221 (STARLINK-34221)
卫星状态:
在轨 (已飞行315 天)
发射日期:
2025-06-18 UTC
国别 :
美国 (US)
星等 :
--
轨道信息
数据来源 国际轨道数据
星历时间: 2026-04-29T14:00:03+0800
11小时前
查看轨道信息
半长轴: 6843.43km
偏心率: 0.0001388
轨道倾角: 53.160°
近地点辐角 92.400°
升交点赤经 213.716°
平近点角 269.643°
近地点: 464.343km
远地点: 466.243km
周期: 93.901分钟
每日圈数: 15.335291
详细信息
固有亮度:
5
最大亮度:
2.5
卫星平台:
Starlink V1.0
覆盖范围:
全球
运营商:
太空探索技术公司
运营商所在国:
美国
制造商(研发单位):
太空探索技术公司
制造商所在国:
美国
使用方式:
暂无
卫星简介
Starlink 计划是 SpaceX 推出的全球卫星互联网项目,通过发射低轨道卫星,为全球尤其是偏远地区提供高速、低延迟的互联网服务。自 2019 年起,Starlink 已部署数千颗卫星,旨在缩小全球数字鸿沟,推动互联网普及。该项目还为军事、航空等行业提供通信支持,带来广泛经济效益。
2D轨道图
3D轨道图
轨道高度分析图
轨道倾角分析图
轨道综合分析图
查看轨道综合分析图